TimeEST,TemperatureF,Dew PointF,Humidity,Sea Level PressureIn,VisibilityMPH,Wind Direction,Wind SpeedMPH,Gust SpeedMPH,PrecipitationIn,Events,Conditions,WindDirDegrees,DateUTC
12:54 AM,1.0,-2.9,83,30.21,10.0,West,6.9,-,N/A,,Clear,280,2013-12-17 05:54:00
1:54 AM,1.9,-2.0,83,30.22,10.0,SW,4.6,-,N/A,,Clear,230,2013-12-17 06:54:00
2:54 AM,-0.0,-4.0,83,30.23,10.0,Calm,Calm,-,N/A,,Clear,0,2013-12-17 07:54:00
3:54 AM,-0.9,-5.1,83,30.22,10.0,Calm,Calm,-,N/A,,Clear,0,2013-12-17 08:54:00
4:54 AM,-2.9,-6.0,87,30.22,10.0,Calm,Calm,-,N/A,,Clear,0,2013-12-17 09:54:00
5:54 AM,-2.9,-6.0,87,30.24,10.0,Calm,Calm,-,N/A,,Clear,0,2013-12-17 10:54:00
6:54 AM,-4.0,-7.1,87,30.21,10.0,Calm,Calm,-,N/A,,Partly Cloudy,0,2013-12-17 11:54:00
7:54 AM,-0.9,-5.1,83,30.20,7.0,NNE,3.5,-,N/A,,Overcast,30,2013-12-17 12:54:00
8:22 AM,1.4,-2.2,85,30.10,1.8,Calm,Calm,-,0.00,Snow,Light Snow,0,2013-12-17 13:22:00
8:36 AM,1.4,-2.2,85,30.09,0.8,Calm,Calm,-,0.00,Snow,Light Snow,0,2013-12-17 13:36:00
8:51 AM,1.4,-2.2,85,30.10,1.0,Calm,Calm,-,0.00,Snow,Light Snow,0,2013-12-17 13:51:00
8:54 AM,1.9,-2.0,83,30.21,0.8,Calm,Calm,-,0.00,Snow,Light Snow,0,2013-12-17 13:54:00
9:35 AM,3.2,1.4,92,30.09,0.2,Calm,Calm,-,0.01,Fog-Snow,Snow,0,2013-12-17 14:35:00
9:51 AM,3.2,1.4,92,30.09,0.5,Calm,Calm,-,0.02,Fog-Snow,Snow,0,2013-12-17 14:51:00
9:54 AM,5.0,1.0,84,30.19,0.5,Calm,Calm,-,0.02,Fog-Snow,Light Snow,0,2013-12-17 14:54:00
10:07 AM,5.0,1.4,85,30.09,1.0,Calm,Calm,-,0.00,Snow,Light Snow,0,2013-12-17 15:07:00
10:15 AM,5.0,1.4,85,30.09,0.5,Calm,Calm,-,0.01,Fog-Snow,Snow,0,2013-12-17 15:15:00
10:25 AM,6.8,1.4,79,30.09,1.0,NE,3.5,-,0.01,Snow,Light Snow,40,2013-12-17 15:25:00
10:54 AM,7.0,3.9,87,30.16,1.2,NE,5.8,-,0.01,Snow,Light Snow,40,2013-12-17 15:54:00
11:38 AM,10.4,6.8,85,30.03,2.5,NNE,3.5,-,0.00,Snow,Light Snow,30,2013-12-17 16:38:00
11:54 AM,10.0,7.0,87,30.11,2.0,NNE,4.6,-,0.01,Snow,Light Snow,20,2013-12-17 16:54:00
12:01 PM,10.4,6.8,85,30.00,1.8,Calm,Calm,-,0.00,Snow,Light Snow,0,2013-12-17 17:01:00
12:16 PM,10.4,8.6,92,29.99,2.5,Calm,Calm,-,0.00,,Overcast,0,2013-12-17 17:16:00
12:31 PM,12.2,8.6,85,29.99,1.5,Calm,Calm,-,0.00,Snow,Light Snow,0,2013-12-17 17:31:00
12:49 PM,14.0,8.6,79,29.97,0.8,ENE,5.8,-,0.00,Snow,Light Snow,60,2013-12-17 17:49:00
12:54 PM,14.0,10.0,84,30.08,0.8,NE,4.6,-,0.00,Snow,Light Snow,50,2013-12-17 17:54:00
1:02 PM,14.0,10.4,86,29.97,0.8,ENE,5.8,-,0.00,Snow,Light Snow,60,2013-12-17 18:02:00
1:13 PM,14.0,10.4,86,29.96,1.2,ENE,4.6,-,0.00,Snow,Light Snow,60,2013-12-17 18:13:00
1:47 PM,14.0,10.4,86,29.94,0.5,ENE,5.8,-,0.01,Fog-Snow,Snow,60,2013-12-17 18:47:00
1:54 PM,14.0,10.0,84,30.04,0.2,ENE,5.8,-,0.01,Fog-Snow,Snow,60,2013-12-17 18:54:00
2:39 PM,15.8,10.4,79,29.94,0.2,NE,4.6,-,0.04,Fog-Snow,Snow,50,2013-12-17 19:39:00
2:54 PM,15.1,10.9,84,30.04,0.2,NE,5.8,-,0.05,Fog-Snow,Snow,50,2013-12-17 19:54:00
3:28 PM,14.0,10.4,86,29.95,0.2,ENE,5.8,-,0.02,Fog-Snow,Snow,60,2013-12-17 20:28:00
3:54 PM,14.0,10.0,84,30.08,0.2,NNE,3.5,-,0.04,Fog-Snow,Snow,30,2013-12-17 20:54:00
4:17 PM,12.2,10.4,92,29.97,0.5,NE,5.8,-,0.01,Fog-Snow,Light Snow,40,2013-12-17 21:17:00
4:54 PM,12.9,9.0,84,30.08,0.8,NE,6.9,-,0.04,Snow,Light Snow,50,2013-12-17 21:54:00
5:54 PM,12.9,10.0,88,30.07,0.8,NE,5.8,-,0.02,Snow,Light Snow,50,2013-12-17 22:54:00
5:59 PM,12.2,10.4,92,29.96,1.2,NE,4.6,-,0.01,Snow,Light Snow,50,2013-12-17 22:59:00
6:28 PM,12.2,10.4,92,29.96,2.5,NE,4.6,-,0.01,Snow,Light Snow,40,2013-12-17 23:28:00
6:35 PM,12.2,10.4,92,29.97,3.0,NNE,3.5,-,0.01,Snow,Light Snow,20,2013-12-17 23:35:00
6:54 PM,14.0,10.0,84,30.07,4.0,NE,4.6,-,0.01,,Overcast,50,2013-12-17 23:54:00
7:54 PM,15.1,10.0,80,30.05,10.0,Calm,Calm,-,N/A,,Overcast,0,2013-12-18 00:54:00
8:54 PM,16.0,10.9,81,30.04,10.0,Calm,Calm,-,N/A,,Overcast,0,2013-12-18 01:54:00
9:54 PM,17.1,10.9,77,30.02,10.0,Calm,Calm,-,N/A,,Overcast,0,2013-12-18 02:54:00
10:54 PM,17.1,12.0,81,30.00,10.0,Calm,Calm,-,N/A,,Overcast,0,2013-12-18 03:54:00
11:54 PM,17.1,12.9,84,29.97,10.0,Calm,Calm,-,N/A,,Overcast,0,2013-12-18 04:54:00